Driggs, ID

12:06 PM MDT on September 21, 2019 (GMT -0600)
Driggs

Weather History for KDIJ - August, 2019

Change the Weather History Date:

Sunday, August 18, 2019

  Actual Average (WUND) Record (WUND)
Temperature  
Mean Temperature 67 °F -  
Max Temperature 81 °F - - (-1)
Min Temperature 54 °F - - (-1)
Cooling Degree Days 2    
Growing Degree Days 17 (Base 50)    
Moisture  
Dew Point 35 °F    
Average Humidity 34    
Maximum Humidity 49    
Minimum Humidity 19    
Precipitation  
Precipitation 0.00 in - - ()
Sea Level Pressure  
Sea Level Pressure 29.90 in    
Wind  
Wind Speed 11 mph (South)    
Max Wind Speed 17 mph    
Max Gust Speed 24 mph    
Visibility 10 miles    
Events      
Averages and records for this station are not official NWS values.
T = Trace of Precipitation, MM = Missing Value Source: NWS Daily Summary

Daily Weather History Graph

Daily Weather History Graph

Search for Another Location

Airport or City:

Astronomy

Aug. 18, 2019 Rise Set
Actual Time 6:32 AM MDT 8:23 PM MDT
Civil Twilight 6:01 AM MDT 8:54 PM MDT
Nautical Twilight 5:23 AM MDT 9:31 PM MDT
Astronomical Twilight 4:42 AM MDT 10:12 PM MDT
Moon 10:14 PM MDT (8/18) 9:24 AM MDT (8/18)
Length of Visible Light 14h 53m
Length of Day
13h 51m
Waning Gibbous, 91% of the Moon is Illuminated
Aug 18
Waning Gibbous
Aug 23
Last Quarter
Aug 30
New
Sep 5
First Quarter
Sep 13
Full

Hourly Weather History & Observations

Time (MDT) Temp. Dew Point Humidity Pressure Visibility Wind Dir Wind Speed Gust Speed Precip Events Conditions
12:56 AM 59.0 °F 30.9 °F 35% 29.81 in 10.0 mi SSE 11.5 mph - N/A   Clear
1:56 AM 54.0 °F 33.1 °F 45% 29.84 in 10.0 mi SSE 10.4 mph - N/A   Clear
2:56 AM 55.9 °F 34.0 °F 44% 29.83 in 10.0 mi South 9.2 mph - N/A   Clear
3:56 AM 54.0 °F 34.0 °F 47% 29.84 in 10.0 mi SSE 10.4 mph - N/A   Clear
4:56 AM 54.0 °F 35.1 °F 49% 29.84 in 10.0 mi SSE 10.4 mph - N/A   Clear
5:56 AM 54.0 °F 34.0 °F 47% 29.88 in 10.0 mi South 11.5 mph - N/A   Clear
6:56 AM 55.0 °F 34.0 °F 45% 29.90 in 10.0 mi South 11.5 mph - N/A   Clear
7:56 AM 60.1 °F 36.0 °F 41% 29.92 in 10.0 mi South 10.4 mph - N/A   Clear
8:56 AM 64.0 °F 36.0 °F 35% 29.94 in 10.0 mi South 13.8 mph 20.7 mph N/A   Clear
9:56 AM 66.9 °F 35.1 °F 31% 29.94 in 10.0 mi South 15.0 mph - N/A   Clear
10:56 AM 70.0 °F 36.0 °F 29% 29.94 in 10.0 mi SSW 15.0 mph - N/A   Clear
11:56 AM 73.0 °F 37.9 °F 28% 29.94 in 10.0 mi SSE 17.3 mph 21.9 mph N/A   Clear
12:56 PM 73.0 °F 37.0 °F 27% 29.94 in 10.0 mi Variable 5.8 mph - N/A   Clear
1:56 PM 75.9 °F 36.0 °F 23% 29.94 in 10.0 mi SW 10.4 mph 17.3 mph N/A   Clear
2:56 PM 78.1 °F 33.1 °F 19% 29.92 in 10.0 mi Variable 3.5 mph - N/A   Clear
3:56 PM 80.1 °F 34.0 °F 19% 29.90 in 10.0 mi South 13.8 mph - N/A   Clear
4:56 PM 80.1 °F 34.0 °F 19% 29.90 in 10.0 mi WSW 15.0 mph 24.2 mph N/A   Clear
5:56 PM 79.0 °F 35.1 °F 20% 29.90 in 10.0 mi WSW 16.1 mph - N/A   Clear
6:56 PM 78.1 °F 33.1 °F 19% 29.89 in 10.0 mi WSW 9.2 mph - N/A   Clear
7:56 PM 71.1 °F 37.9 °F 30% 29.90 in 10.0 mi SSE 4.6 mph - N/A   Clear
8:56 PM 63.0 °F 36.0 °F 37% 29.91 in 10.0 mi SE 9.2 mph - N/A   Clear
9:56 PM 60.1 °F 35.1 °F 39% 29.93 in 10.0 mi SE 8.1 mph - N/A   Clear
10:56 PM 57.0 °F 36.0 °F 45% 29.92 in 10.0 mi Variable 4.6 mph - N/A   Clear
11:56 PM 57.9 °F 35.1 °F 42% 29.92 in 10.0 mi SSW 4.6 mph - N/A   Clear